Temperature
17 17 17 17 16 16 16 16 17 17 18 17 17 16 16 16 16 16 16 16 16 16 16 16 16 16 16 16 15 15 15 15 15 15 14 14 14 14
16 16 16 16 16 16 16 16 16 16 17 17 16 16 16 16 16 16 16 16 16 16 16 16 16 16 16 16 15 15 15 15 14 14 14 14 14 14
16 16 16 16 16 16 16 16 16 16 16 16 16 16 16 16 16 16 15 16 16 16 16 16 16 16 16 15 15 15 15 15 14 14 14 14 14 14
16 16 16 16 16 16 16 16 16 16 16 16 16 16 15 15 15 15 15 15 15 16 16 16 16 15 15 15 15 15 15 15 14 14 14 14 14 13
16 16 16 16 16 15 15 16 16 16 15 15 16 15 15 15 15 15 15 15 15 15 15 15 15 15 15 15 15 15 15 14 14 14 14 14 13 13
16 16 15 15 15 15 15 15 15 15 15 15 15 15 15 15 15 15 15 15 15 15 15 15 15 15 15 15 15 15 14 14 14 14 13 13 13 13
15 15 15 15 15 15 15 15 15 15 15 15 15 15 15 15 15 15 15 14 14 14 14 14 14 14 14 14 14 14 14 14 14 13 13 13 13 13
15 15 15 15 15 15 15 15 15 14 14 15 15 15 15 15 14 14 14 14 14 14 14 14 14 14 14 14 14 14 14 13 13 13 13 13 12 12
15 15 15 15 15 15 15 15 14 14 14 14 14 14 14 14 14 14 14 14 14 14 13 13 13 13 13 13 13 13 13 13 13 13 13 12 12 12
15 15 15 14 15 14 14 14 14 14 14 14 14 14 14 14 14 14 13 13 13 13 13 13 13 13 13 13 13 13 13 13 13 12 12 12 12 12
14 14 14 14 14 14 14 14 14 14 14 14 14 14 14 14 13 13 13 13 13 13 13 13 13 13 12 13 13 12 12 12 12 12 12 12 12 11
14 14 14 14 14 14 14 14 13 14 13 13 13 13 13 13 13 13 13 12 13 13 13 12 12 12 12 12 12 12 12 12 12 12 12 11 11 11
13 13 14 14 14 14 14 13 13 13 13 13 13 13 13 13 12 12 12 12 12 12 12 12 12 12 12 12 12 12 12 11 11 11 11 11 11 11
13 13 13 13 14 14 13 13 13 13 13 13 13 12 12 12 12 12 12 12 12 12 12 12 12 12 12 12 11 11 11 11 11 11 11 11 11 11
13 13 13 13 13 13 13 13 13 12 12 12 12 12 12 12 12 12 12 12 12 12 11 11 11 11 11 11 11 11 11 11 11 10 10 10 10 10
12 13 13 13 12 12 12 12 12 12 12 12 12 12 11 11 11 11 11 11 11 11 11 11 11 11 11 11 11 11 11 11 10 10 10 10 10 10
12 12 12 12 12 12 12 12 11 11 11 11 11 11 11 11 11 11 11 11 11 11 11 11 11 11 11 11 11 10 10 10 10 10 10 10 10 9
12 12 12 12 12 12 12 12 11 11 11 11 11 11 11 11 11 11 11 11 11 11 11 11 10 10 10 10 10 10 10 10 10 10 10 10 10 9
11 11 11 11 11 11 11 11 11 11 11 11 11 10 10 10 10 10 10 10 10 10 10 10 10 10 10 10 10 10 10 10 10 9 10 9 9 9
11 11 11 11 10 10 10 10 10 10 10 10 10 10 10 10 10 10 10 10 10 10 10 10 10 10 10 10 10 9 9 9 9 9 9 9 9 9
11 11 10 10 10 10 10 10 10 10 10 10 10 10 10 10 10 10 10 10 10 10 10 10 10 10 9 9 9 9 9 9 9 9 9 9 9 9
10 10 10 10 9 9 9 9 9 9 9 9 9 9 9 9 9 9 9 9 9 9 9 9 9 9 9 9 9 9 9 9 9 9 9 9 9 9
9 9 9 9 9 9 9 9 9 9 9 9 9 9 9 9 9 9 9 9 9 9 9 9 9 9 9 9 9 9 9 9 9 8 8 9 9 9
Wind_Speed
6 6 6 5 5 5 6 6 6 6 6 5 5 5 5 5 5 7 7 9 11 12 12 13 13 13 13 12 12 11 11 11 11 10 10 9 9 9
5 5 6 6 5 6 6 6 6 7 7 5 5 4 4 5 5 7 7 9 12 12 12 12 12 12 12 12 12 12 11 10 9 10 10 9 9 9
6 6 6 6 5 6 5 6 6 7 8 7 5 4 5 6 4 6 8 8 9 13 12 11 11 12 12 12 12 11 10 10 9 9 10 9 9 9
7 6 7 6 7 7 6 7 7 7 8 8 6 5 6 7 6 6 6 7 6 9 12 11 11 11 12 12 11 11 11 10 9 9 9 9 9 9
7 7 7 7 7 6 7 7 7 7 7 8 8 5 6 6 6 6 6 5 6 7 11 12 12 12 12 12 12 12 11 11 10 9 9 9 9 9
7 7 8 7 8 7 7 7 7 7 7 7 7 6 6 6 5 6 5 5 5 5 5 7 10 12 12 12 12 12 12 11 11 10 9 9 9 9
8 8 8 7 7 7 7 7 7 7 7 7 7 7 6 5 6 6 6 5 5 5 4 5 7 8 9 12 13 12 12 12 12 12 11 10 10 10
8 7 8 8 8 8 8 8 8 8 8 8 8 8 7 7 6 6 6 6 5 4 5 5 5 5 6 8 11 13 13 13 13 13 12 12 11 11
7 7 7 7 7 8 8 9 9 9 10 10 10 10 8 7 6 7 7 8 7 5 5 6 5 6 6 6 10 13 14 14 14 13 13 13 12 11
8 8 8 8 7 7 8 8 8 8 8 9 9 9 8 7 7 8 8 8 8 6 6 6 6 6 5 5 10 13 13 13 13 13 13 13 13 11
8 8 8 8 5 6 8 8 8 8 7 7 7 7 6 6 6 6 7 7 7 6 5 5 5 5 5 5 7 14 14 13 13 13 13 13 14 13
7 7 7 7 5 5 8 8 9 8 6 5 5 7 7 7 8 8 8 8 6 5 5 5 5 4 5 5 5 7 9 12 13 13 13 13 13 11
6 6 5 4 5 6 8 8 7 7 7 6 6 6 6 6 6 7 6 7 7 7 5 5 5 5 5 5 5 6 6 6 8 10 12 13 13 12
6 5 3 3 4 7 7 6 6 7 6 6 5 5 5 5 5 5 6 7 7 7 7 6 6 6 6 6 6 5 6 6 6 7 8 12 14 14
4 3 3 4 6 6 8 8 7 6 6 6 6 6 5 5 5 4 5 6 7 8 8 9 8 7 7 8 7 6 5 5 6 6 7 7 8 9
4 3 4 6 6 5 5 5 6 5 5 6 5 5 5 5 5 5 5 6 6 6 7 8 9 9 9 8 7 6 6 6 6 6 7 7 8 9
3 4 3 3 3 3 3 3 4 4 5 5 5 5 5 5 5 5 5 6 6 7 6 6 7 7 7 7 7 7 7 7 7 6 7 7 7 8
3 3 3 3 3 3 4 4 4 4 4 5 5 5 5 6 5 5 6 6 7 7 6 5 5 4 5 5 6 8 7 7 7 7 7 8 8 8
2 2 2 3 3 3 4 4 4 4 4 4 5 5 5 5 5 6 6 7 7 7 6 5 6 6 7 7 6 7 8 7 7 7 8 8 8 8
2 2 3 3 3 3 4 4 4 4 4 5 5 5 5 6 6 6 6 7 7 7 6 6 7 7 7 7 6 6 9 9 7 7 7 7 6 5
2 2 3 3 4 3 3 4 4 4 5 5 5 5 5 5 6 6 6 6 7 7 7 6 5 5 5 5 5 6 6 8 8 7 7 7 7 7
3 3 3 4 4 4 4 4 5 5 5 5 5 5 5 5 6 7 6 6 6 6 7 6 5 5 5 7 7 7 6 5 7 8 8 8 7 8
4 4 4 4 4 4 4 4 5 5 4 5 5 5 5 5 5 5 6 6 5 6 6 5 5 4 6 7 7 6 6 6 6 6 7 8 8 7
Wind_Direction
237 232 240 241 242 243 245 250 258 266 262 239 238 228 232 235 211 223 228 204 209 217 219 218 216 215 216 217 221 224 227 230 229 228 222 219 221 221
241 245 246 247 243 245 245 245 250 259 265 259 251 241 243 250 216 233 232 205 208 213 217 218 217 215 214 215 219 221 220 220 219 218 216 215 215 215
240 237 240 252 251 246 243 244 246 250 258 265 262 247 237 254 241 243 239 230 218 203 209 212 215 216 214 212 213 214 214 215 217 217 215 212 212 214
242 242 240 237 240 250 249 247 248 247 251 261 263 252 240 242 242 244 243 236 236 187 191 202 207 210 211 209 209 210 211 210 211 213 211 209 211 214
243 241 242 241 243 244 247 250 251 248 247 253 258 252 251 241 238 238 243 237 238 189 182 195 201 204 206 206 206 208 207 207 207 209 211 210 209 212
244 244 245 241 243 246 247 248 253 253 248 250 252 250 247 236 231 238 238 228 233 221 199 194 192 199 204 205 207 209 208 207 207 207 209 211 211 211
242 241 242 244 255 256 259 256 253 254 254 248 248 248 245 235 237 240 241 239 230 221 218 214 199 207 206 207 209 209 209 209 209 209 211 213 216 214
242 240 240 233 237 236 251 261 264 260 260 257 252 250 246 242 243 246 242 240 245 213 224 234 223 223 218 213 197 201 208 209 210 208 209 211 214 215
246 246 250 243 236 245 237 233 244 251 254 257 257 256 254 247 244 243 240 241 246 230 220 239 229 230 226 210 185 193 201 205 205 205 206 207 209 211
247 245 248 253 250 256 257 253 249 246 243 245 254 259 259 255 245 244 244 245 247 233 223 241 239 238 233 214 181 187 196 201 204 205 205 205 205 207
250 248 248 249 248 256 253 254 255 254 238 234 247 254 262 256 245 244 240 241 246 239 222 236 244 248 244 230 193 185 193 200 203 206 209 212 212 210
249 245 241 248 249 245 249 252 255 256 258 245 236 240 243 237 224 230 237 239 247 248 222 222 238 244 248 237 218 202 203 204 205 208 210 215 217 219
256 252 241 215 235 237 249 252 255 260 252 247 244 242 238 236 231 227 233 240 245 249 229 218 240 241 245 252 243 225 215 214 208 210 210 210 212 216
260 263 255 202 236 242 244 249 248 253 248 245 246 247 248 247 243 242 239 243 248 251 243 236 246 239 245 252 253 237 227 222 220 220 214 203 206 211
270 293 274 223 225 231 229 233 233 241 244 243 245 250 252 249 248 243 239 234 238 245 241 237 241 240 242 248 248 242 241 238 228 227 221 214 210 207
268 261 229 228 232 237 235 232 239 249 252 251 255 255 252 245 240 239 241 240 241 242 236 235 237 242 246 245 242 240 237 234 230 231 228 223 218 214
269 262 263 262 256 255 254 258 257 249 247 250 252 254 249 243 242 243 243 241 244 246 241 231 230 232 242 245 240 236 234 236 232 228 233 233 227 221
277 269 273 269 266 266 264 261 257 258 257 256 252 251 252 251 247 245 246 245 246 247 244 236 225 230 243 250 245 240 239 238 235 225 230 234 234 226
270 287 285 281 275 270 270 269 271 269 266 260 257 256 256 254 252 247 244 246 248 249 247 238 231 232 241 250 242 228 237 236 232 231 231 233 236 232
289 289 285 283 279 278 277 275 274 273 268 264 260 259 256 256 254 250 246 249 252 250 247 244 240 240 247 258 260 248 222 230 232 233 235 238 241 232
320 311 306 300 296 293 290 284 280 278 274 269 265 264 262 261 261 262 259 247 248 249 249 251 256 253 259 261 250 248 236 217 228 235 233 234 235 232
327 322 318 312 307 306 307 300 291 284 280 275 274 273 270 265 265 266 264 261 256 254 259 262 259 251 245 247 249 248 246 234 225 223 230 234 238 236
321 322 325 321 317 311 310 304 299 300 297 291 287 284 283 276 272 267 264 261 262 263 266 265 261 254 251 250 253 252 245 241 234 228 233 219 214 219
Height
1540 1540 1540 1541 1542 1542 1543 1543 1544 1543 1542 1542 1542 1542 1541 1541 1540 1539 1539 1538 1539 1540 1540 1541 1541 1542 1542 1543 1543 1544 1544 1545 1545 1545 1546 1546 1546 1546
1536 1536 1537 1538 1538 1539 1539 1539 1540 1540 1539 1539 1539 1539 1538 1538 1536 1536 1535 1535 1535 1536 1537 1537 1538 1538 1538 1539 1539 1540 1541 1541 1541 1541 1542 1542 1542 1543
1533 1533 1533 1534 1535 1535 1535 1536 1536 1536 1535 1535 1535 1534 1533 1533 1533 1532 1532 1532 1532 1532 1533 1533 1534 1534 1535 1535 1536 1536 1537 1537 1537 1538 1538 1538 1538 1539
1530 1530 1530 1530 1530 1531 1531 1532 1532 1531 1531 1530 1530 1530 1529 1529 1528 1528 1529 1529 1529 1529 1529 1529 1530 1530 1531 1531 1532 1532 1533 1533 1533 1534 1534 1534 1534 1535
1526 1526 1526 1526 1526 1527 1527 1527 1527 1527 1527 1526 1526 1526 1525 1525 1525 1525 1525 1524 1525 1525 1525 1525 1526 1526 1527 1527 1528 1528 1529 1529 1530 1530 1530 1530 1530 1530
1522 1522 1522 1522 1522 1523 1523 1522 1522 1522 1522 1522 1521 1521 1521 1521 1521 1521 1521 1521 1521 1522 1521 1521 1521 1522 1523 1523 1524 1524 1525 1525 1525 1526 1526 1526 1526 1526
1517 1518 1518 1518 1518 1518 1519 1518 1518 1518 1518 1517 1517 1517 1517 1517 1517 1517 1518 1518 1518 1518 1518 1518 1518 1518 1518 1518 1519 1519 1520 1521 1521 1521 1521 1522 1522 1522
1513 1513 1513 1513 1513 1514 1513 1513 1513 1513 1513 1512 1512 1512 1512 1512 1513 1513 1514 1514 1514 1514 1514 1514 1514 1514 1514 1514 1514 1515 1516 1516 1517 1517 1517 1518 1518 1518
1508 1508 1509 1510 1509 1509 1508 1508 1508 1508 1508 1508 1507 1507 1507 1508 1508 1508 1509 1509 1509 1509 1510 1510 1510 1510 1510 1510 1510 1511 1511 1512 1512 1512 1513 1513 1514 1514
1504 1504 1504 1504 1504 1504 1504 1504 1504 1503 1503 1502 1502 1501 1502 1502 1503 1504 1504 1504 1504 1505 1505 1505 1505 1506 1506 1506 1506 1506 1507 1507 1508 1508 1508 1509 1509 1510
1500 1500 1500 1500 1500 1500 1500 1499 1499 1498 1498 1497 1497 1497 1496 1496 1497 1498 1499 1500 1499 1500 1500 1500 1501 1502 1502 1502 1502 1502 1502 1503 1503 1503 1504 1505 1505 1505
1495 1495 1495 1495 1495 1495 1495 1495 1494 1494 1494 1493 1493 1492 1492 1491 1492 1493 1494 1495 1494 1495 1495 1496 1496 1497 1497 1498 1498 1498 1498 1498 1499 1499 1499 1500 1501 1501
1491 1491 1490 1490 1490 1490 1490 1490 1490 1490 1490 1489 1489 1488 1488 1488 1488 1488 1488 1489 1490 1490 1491 1491 1492 1492 1493 1493 1493 1494 1494 1494 1494 1494 1495 1496 1496 1497
1487 1487 1486 1485 1485 1485 1485 1485 1485 1485 1485 1485 1484 1484 1484 1484 1484 1484 1484 1484 1484 1485 1486 1486 1487 1487 1488 1488 1489 1489 1489 1489 1490 1490 1490 1491 1491 1492
1482 1482 1481 1480 1480 1480 1480 1480 1480 1480 1480 1480 1480 1480 1480 1480 1480 1480 1480 1480 1480 1480 1481 1481 1482 1482 1483 1483 1483 1484 1484 1484 1485 1486 1486 1486 1487 1487
1478 1477 1476 1476 1476 1476 1475 1475 1476 1476 1475 1475 1475 1475 1476 1476 1476 1475 1476 1476 1476 1476 1476 1476 1476 1477 1478 1478 1479 1478 1479 1480 1480 1481 1481 1481 1482 1482
1473 1473 1473 1473 1472 1472 1472 1472 1472 1472 1471 1471 1471 1471 1471 1471 1471 1472 1471 1471 1472 1471 1471 1472 1472 1472 1472 1473 1473 1473 1474 1474 1475 1476 1476 1476 1477 1477
1471 1470 1470 1470 1469 1468 1468 1468 1468 1468 1467 1467 1467 1466 1467 1467 1467 1467 1467 1467 1466 1466 1467 1467 1467 1467 1467 1467 1468 1467 1468 1469 1470 1470 1471 1471 1472 1473
1468 1468 1467 1467 1466 1465 1465 1464 1465 1464 1464 1463 1462 1462 1462 1462 1462 1462 1462 1462 1462 1462 1462 1462 1462 1462 1461 1460 1460 1462 1462 1463 1464 1464 1465 1466 1466 1467
1465 1465 1464 1464 1463 1462 1462 1461 1461 1461 1460 1460 1459 1458 1458 1458 1458 1457 1457 1457 1457 1457 1457 1457 1457 1457 1456 1456 1455 1455 1456 1457 1458 1458 1459 1460 1461 1461
1463 1462 1462 1462 1461 1460 1459 1458 1458 1457 1456 1455 1455 1455 1455 1454 1454 1453 1453 1452 1452 1452 1452 1451 1451 1452 1452 1452 1451 1450 1451 1451 1452 1452 1454 1455 1455 1455
1461 1461 1460 1459 1458 1457 1456 1455 1454 1453 1452 1452 1451 1451 1451 1450 1450 1449 1449 1448 1448 1448 1447 1447 1447 1446 1447 1446 1445 1445 1445 1446 1446 1447 1448 1449 1449 1449
1460 1459 1458 1456 1455 1454 1453 1452 1451 1450 1449 1448 1447 1447 1447 1446 1445 1445 1444 1444 1444 1443 1443 1442 1442 1441 1441 1441 1441 1441 1440 1441 1441 1441 1442 1443 1444 1444